Location: Standeford and Andreas Observatories
(44.1397°N, 93.9969°W)
Time: 20:29:04
(UTC-05:00)

Cosmos 1500 Rocket - Visible Passes

Search period start: 28 March 2017 00:00
Search period end: 07 April 2017 00:00
Orbit: 603 x 633 km, 82.5° (Epoch: 27 March)

Date Brightness Start Highest point End Pass type
(mag) Time Alt. Az. Time Alt. Az. Time Alt. Az.
28 Mar 5.4 20:15:01 10° NE 20:17:15 14° ENE 20:19:25 10° E visible
28 Mar 4.0 21:51:14 10° NNW 21:55:29 57° W 21:56:35 43° SSW visible
29 Mar 4.7 20:30:55 10° NNE 20:34:25 23° ENE 20:36:55 15° ESE visible
29 Mar 5.2 22:08:28 10° NNW 22:12:17 31° W 22:14:04 22° SW visible
30 Mar 3.9 20:47:23 10° N 20:51:30 41° ENE 20:54:28 17° SE visible
30 Mar 6.1 22:26:07 10° NW 22:28:59 18° W 22:31:38 11° SW visible
31 Mar 3.4 21:04:08 10° N 21:08:29 77° E 21:12:06 14° SSE visible
01 Apr 4.1 21:21:07 10° NNW 21:25:22 56° W 21:29:35 10° S visible
02 Apr 5.3 21:38:21 10° NNW 21:42:09 31° W 21:45:57 10° SSW visible
03 Apr 4.0 20:17:15 10° N 20:21:23 42° ENE 20:25:29 10° SSE visible
03 Apr 6.3 21:56:00 10° NW 21:58:51 17° W 22:01:43 10° SW visible
04 Apr 3.5 20:34:01 10° N 20:38:21 78° E 20:42:41 10° SSE visible
05 Apr 4.2 20:51:00 10° NNW 20:55:14 56° W 20:59:28 10° S visible
06 Apr 5.5 21:08:14 10° NNW 21:12:02 30° W 21:15:50 10° SSW visible
